Station JNEA2 - 9452210 - Juneau, AK Image indicating link to RSS feed of recent meteorological observations for station JNEA2


Conditions at JNEA2 as of
(2:18 am AKDT)
1018 GMT on 07/21/2024:
     

Click on the graph icon in the table below to see a time series plot of the last five days of that observation.

5-day plot - Wind Direction Wind Direction (WDIR): S ( 170 deg true )
5-day plot - Wind Speed Wind Speed (WSPD): 2.9 kts
5-day plot - Wind Gust Wind Gust (GST): 4.1 kts
5-day plot - Atmospheric Pressure Atmospheric Pressure (PRES):30.13 in
5-day plot - Air Temperature Air Temperature (ATMP): 54.0 °F
5-day plot - Water Temperature Water Temperature (WTMP): 47.5 °F
5-day plot - Wind Speed at 10 Meters Wind Speed at 10 meters (WSPD10M): 3.9 kts
5-day plot - Wind Speed at 20 Meters Wind Speed at 20 meters (WSPD20M): 3.9 kts
5-day plot -  Wind Speed, Wind Gust and Atmospheric Pressure Combined plot of Wind Speed, Gust, and Air Pressure
NOS Water Level Observation Network Water Level
Previous observations
TIME
(AKDT)
5-day plot - Wind Direction
WDIR
 
5-day plot - Wind Speed
WSPD
kts
5-day plot - Wind Gust
GST
kts
5-day plot - Wave Height
WVHT
ft
5-day plot - Dominant Wave Period
DPD
sec
5-day plot - Average Wave Period
APD
sec
5-day plot - Mean Wave Direction
MWD
 
5-day plot - Atmospheric Pressure
PRES
in
5-day plot - Pressure Tendency
PTDY
in
5-day plot - Air Temperature
ATMP
°F
5-day plot - Water Temperature
WTMP
°F
5-day plot - Dew Point
DEWP
°F
5-day plot - Salinity
SAL
psu
5-day plot - Visibility
VIS
nmi
5-day plot - Tide (above MLLW)
TIDE
ft
2024-07-21 02:12 amSSE 1.9 2.9----30.13- 53.6 47.1----
2024-07-21 02:06 amSSE 1.0 2.9----30.13- 54.3 47.1----
2024-07-21 02:00 am- 0.0 1.0----30.13-0.01 55.8 47.1----
2024-07-21 01:54 am- 0.0 1.0----30.13- 54.5 46.9----
2024-07-21 01:48 amSSW 1.9 1.9----30.13- 54.1 46.9----
2024-07-21 01:42 am- 0.0 0.0----30.13- 55.9 47.1----
2024-07-21 01:36 am- 0.0 0.0----30.13- 56.1 47.1----
2024-07-21 01:30 am-------30.13- 55.4 47.3----
2024-07-21 01:24 am-------30.13- 54.7 47.3----
2024-07-21 01:18 amSSW 1.9 1.9----30.13- 55.8 47.1----
2024-07-21 01:12 am- 0.0 0.0----30.12- 55.6 46.8----
2024-07-21 01:06 am- 0.0 0.0----30.13- 55.6 46.8----
2024-07-21 01:00 am- 0.0 1.9------ 55.8 46.8----
2024-07-21 12:54 am SW 1.0 1.9------ 56.7 46.8----
2024-07-21 12:48 am- 0.0 1.0----30.13- 56.7 46.8----
2024-07-21 12:42 am- 0.0 1.0----30.13- 56.8 46.8----
2024-07-21 12:36 am- 0.0 0.0----30.13- 57.6 46.8----
2024-07-21 12:30 am- 0.0 1.0----30.13- 57.2 46.8----
2024-07-21 12:24 am- 0.0 1.0----30.13- 56.8 46.8----
2024-07-21 12:18 am- 0.0 1.9----30.13- 56.3 46.8----
2024-07-21 12:12 am- 0.0 1.9----30.13- 57.0 46.8----
2024-07-21 12:06 am- 0.0 1.0----30.13- 57.7 46.6----
2024-07-21 12:00 am- 0.0 1.0----30.13+0.00 58.6 46.6----
2024-07-20 11:54 pm- 0.0 1.0----30.13- 59.4 46.8----
2024-07-20 11:48 pm- 0.0 1.9----30.14- 59.0 46.8----
2024-07-20 11:42 pm- 0.0 1.0----30.14- 57.9 46.8----
2024-07-20 11:36 pm- 0.0 1.9----30.14- 57.7 46.8----
2024-07-20 11:30 pm- 0.0 1.0----30.14- 57.7 46.6----
2024-07-20 11:24 pm- 0.0 0.0----30.14- 57.4 46.6----
2024-07-20 11:18 pm- 0.0 1.9----30.14- 57.4 46.6----
2024-07-20 11:12 pm SW 1.9 2.9----30.14- 57.9 46.6----
2024-07-20 11:06 pm- 0.0 0.0----30.14- 59.7 46.6----
2024-07-20 11:00 pm- 0.0 0.0----30.14+0.00 59.2 46.6----
2024-07-20 10:54 pm- 0.0 1.9----30.14- 58.8 46.4----
2024-07-20 10:48 pm- 0.0 0.0----30.15- 59.0 46.0----
2024-07-20 10:42 pm- 0.0 0.0----30.14- 59.4 46.6----
2024-07-20 10:36 pm- 0.0 0.0----30.14- 59.4 46.6----
2024-07-20 10:30 pm- 0.0 2.9----30.15- 59.4 47.3----
2024-07-20 10:24 pm S 1.9 5.1----30.15- 59.7 47.1----
2024-07-20 10:18 pmESE 2.9 4.1----30.15-- 46.8----
2024-07-20 10:12 pm SE 1.9 5.1----30.14-- 46.9----
2024-07-20 10:06 pm NW 2.9 5.1----30.14-- 46.9----
2024-07-20 10:00 pm NW 2.9 7.0----30.14+0.00- 46.6----
2024-07-20 09:54 pm NW 5.1 6.0----30.14-- 46.8----
2024-07-20 09:48 pm NW 4.1 5.1----30.14- 64.0 47.1----
2024-07-20 09:42 pmNNW 1.9 4.1----30.14- 64.4 47.5----
2024-07-20 09:36 pmNNW 1.9 4.1----30.14- 64.9 47.5----
2024-07-20 09:30 pmNNW 2.9 5.1----30.14-- 47.3----
2024-07-20 09:24 pm NW 2.9 6.0----30.14-- 47.5----
2024-07-20 09:18 pm NW 4.1 5.1----30.14- 65.5 47.7----
2024-07-20 09:12 pm NW 2.9 7.0----30.14- 65.7 47.7----
2024-07-20 09:06 pm NW 5.1 8.9----30.14- 65.7 47.7----
2024-07-20 09:00 pmWNW 4.1 8.0----30.14-0.01 65.8 47.7----
2024-07-20 08:54 pmWNW 5.1 7.0----30.14- 66.6 47.8----
2024-07-20 08:48 pm NW 4.1 6.0----30.14- 66.7 47.8----
2024-07-20 08:42 pm NW 4.1 7.0----30.14- 66.7 47.7----
2024-07-20 08:36 pm NW 4.1 7.0----30.14- 66.9 47.7----
2024-07-20 08:30 pm-------30.14- 67.1 47.8----
2024-07-20 08:24 pm-------30.14- 67.6 48.2----
2024-07-20 08:18 pm-------30.14- 68.2 48.4----
2024-07-20 08:12 pm-------30.14- 68.0 48.7----
2024-07-20 08:06 pm-------30.14- 68.2 49.3----
2024-07-20 08:00 pmWNW 6.0 8.0----30.14-0.01 67.8 49.5----
2024-07-20 07:54 pmWNW 5.1 7.0----30.14- 68.0 49.5----
2024-07-20 07:48 pm NW 2.9 6.0----30.14- 68.4 49.5----
2024-07-20 07:42 pmWNW 5.1 8.0----30.14- 68.5 49.5----
2024-07-20 07:36 pmWNW 4.1 6.0----30.14- 68.9 49.5----
2024-07-20 07:30 pm--------- 69.3 49.6----
2024-07-20 07:24 pm--------- 69.3 49.3----
2024-07-20 07:18 pmWNW 5.1 7.0----30.14-- 49.3----
2024-07-20 07:12 pmWNW 5.1 9.9----30.14-- 49.3----
2024-07-20 07:06 pm W 6.0 8.9----30.15-- 49.3----
2024-07-20 07:00 pmWNW 7.0 9.9----30.15-0.01 70.0 49.1----
2024-07-20 06:54 pmWNW 6.0 8.9----30.14- 70.0 48.7----
2024-07-20 06:48 pmWNW 6.0 11.1----30.14- 70.2 48.6----
2024-07-20 06:42 pmWNW 8.0 11.1----30.14- 70.5 48.6----
2024-07-20 06:36 pm W 7.0 11.1----30.14- 71.4 48.7----
2024-07-20 06:30 pmWNW 8.9 13.0----30.15- 71.2 48.9----
2024-07-20 06:24 pmWNW 7.0 11.1----30.15- 71.6 49.1----
2024-07-20 06:18 pmWNW 8.0 12.0----30.15- 71.4 49.1----
2024-07-20 06:12 pm W 6.0 11.1----30.15- 71.4 49.3----
2024-07-20 06:06 pmWNW 8.0 11.1----30.15- 71.8 49.3----
2024-07-20 06:00 pmWNW 6.0 9.9----30.15-0.02 72.0-----
2024-07-20 05:54 pmWNW 5.1 8.9----30.15- 72.5-----
2024-07-20 05:48 pmWNW 5.1 8.9----30.15- 72.5 49.1----
2024-07-20 05:42 pmWNW 5.1 8.0----30.15- 72.3 48.7----
2024-07-20 05:36 pmWNW 4.1 7.0----30.15- 72.7 48.7----
2024-07-20 05:30 pm W 4.1 5.1----30.15-- 48.7----
2024-07-20 05:24 pm- 0.0 2.9----30.15-- 48.9----
2024-07-20 05:18 pm E 1.0 1.9----30.15- 65.3 48.9----
2024-07-20 05:12 pmSSE 2.9 2.9----30.15- 64.2 48.9----
2024-07-20 05:06 pmSSE 2.9 4.1----30.15- 63.7 48.9----
2024-07-20 05:00 pmSSE 2.9 5.1----30.15-0.04 63.0 48.9----
2024-07-20 04:54 pm S 2.9 5.1----30.16- 64.2 48.9----
2024-07-20 04:48 pmSSE 4.1 4.1----30.16- 65.5 48.9----
2024-07-20 04:42 pm SE 4.1 7.0----30.16- 63.7 49.1----
2024-07-20 04:36 pmSSE 4.1 6.0----30.16-- 48.7----
2024-07-20 04:30 pm- 0.0 5.1----30.16- 71.1 49.1----
2024-07-20 04:24 pmWNW 4.1 8.0----30.16- 72.1 49.1----
2024-07-20 04:18 pmWNW 4.1 8.9----30.16- 72.0 48.9----
2024-07-20 04:12 pmWNW 4.1 7.0----30.16- 72.0 48.6----
2024-07-20 04:06 pmWNW 6.0 9.9----30.16- 71.4 48.4----
2024-07-20 04:00 pm W 5.1 8.9----30.16-0.05 72.0 48.4----
2024-07-20 03:54 pmWNW 6.0 8.9----30.16- 71.4 48.4----
2024-07-20 03:48 pmWNW 6.0 8.9----30.16- 71.4 48.4----
2024-07-20 03:42 pm W 6.0 8.0----30.16- 71.8 48.4----
2024-07-20 03:36 pm W 5.1 7.0----30.16- 72.0 48.6----
2024-07-20 03:30 pmWNW 4.1 7.0----30.17- 72.5 48.4----
2024-07-20 03:24 pm NW 4.1 7.0----30.17- 72.1 48.2----
2024-07-20 03:18 pmWNW 5.1 8.0----30.17- 71.8 48.4----
2024-07-20 03:12 pmWNW 5.1 7.0----30.17- 71.6 48.2----
2024-07-20 03:06 pmWNW 2.9 6.0----30.17- 72.3 48.2----
2024-07-20 03:00 pmWNW 4.1 8.0----30.17- 71.8 48.2----
2024-07-20 02:54 pm W 6.0 7.0----30.18- 71.1 48.2----
2024-07-20 02:48 pm NW 1.9 4.1----30.18- 71.6 48.2----
2024-07-20 02:42 pm W 2.9 5.1----30.18- 72.1 48.4----
2024-07-20 02:36 pm W 4.1 5.1----30.18- 70.3 48.4----
2024-07-20 02:30 pm W 4.1 5.1----30.18-- 48.2----
2024-07-20 02:24 pm NW 2.9 4.1----30.19-- 48.0----
2024-07-20 02:18 pmWNW 2.9 6.0----30.19- 70.3 48.2----
2024-07-20 02:12 pm NW 4.1 7.0----30.19- 69.8 48.0----
2024-07-20 02:06 pm W 5.1 7.0----30.19- 68.7 48.2----
2024-07-20 02:00 pm W 4.1 7.0----30.19-0.03 68.9 48.2----
2024-07-20 01:54 pm W 5.1 6.0----30.19- 67.6 48.6----
2024-07-20 01:48 pmWSW 1.9 5.1----30.19- 68.5 48.7----
2024-07-20 01:42 pm W 1.9 2.9----30.19- 68.9 49.1----
2024-07-20 01:36 pmWNW 1.9 4.1----30.20- 67.1 48.9----
2024-07-20 01:30 pm W 1.9 4.1----30.20-- 48.4----
2024-07-20 01:24 pm W 4.1 5.1----30.20-- 48.2----
2024-07-20 01:18 pm W 1.9 2.9----30.20- 65.5 48.2----
2024-07-20 01:12 pm- 0.0 1.9----30.21- 64.8 48.9----
2024-07-20 01:06 pmENE 1.0 1.0----30.21- 61.7 48.6----
2024-07-20 01:00 pmSSE 1.0 2.9----30.21+0.00- 48.7----
2024-07-20 12:54 pm SW 1.9 2.9----30.21-- 48.7----
2024-07-20 12:48 pm- 0.0 1.0----30.21-- 49.1----
2024-07-20 12:42 pm- 0.0 1.0----30.22-- 49.6----
2024-07-20 12:36 pm- 0.0 1.0----30.22-- 49.5----
2024-07-20 12:30 pm- 0.0 1.0----30.22- 59.0 50.0----
2024-07-20 12:24 pm- 0.0 1.0----30.22- 58.3 49.5----
2024-07-20 12:18 pm- 0.0 1.0----30.22- 57.6 49.1----
2024-07-20 12:12 pm SE 1.0 2.9----30.22- 55.9 47.7----
2024-07-20 12:06 pm S 1.9 4.1----30.22- 54.9 48.4----
2024-07-20 12:00 pm- 0.0 1.9------ 57.2 49.5----
2024-07-20 11:54 am E 1.0 4.1------ 55.0 50.0----
2024-07-20 11:48 am SE 2.9 6.0----30.23-- 50.2----
2024-07-20 11:42 am S 4.1 6.0----30.23-- 48.7----
2024-07-20 11:36 amSSE 5.1 8.0----30.23-- 46.8----
2024-07-20 11:30 am SE 8.0 12.0----30.23- 56.3 46.8----
2024-07-20 11:24 amSSE 8.0 11.1----30.23- 55.4 46.8----
2024-07-20 11:18 amSSE 11.1 12.0----30.23- 54.5-----
2024-07-20 11:12 amSSE 8.9 11.1----30.22- 55.2-----
2024-07-20 11:06 amSSE 4.1 6.0----30.22- 59.4-----
2024-07-20 11:00 amSSE 5.1 7.0----30.22+0.01 58.1 47.1----
2024-07-20 10:54 amSSE 7.0 8.0----30.22- 58.1 47.1----
2024-07-20 10:48 amSSE 8.0 8.0----30.22-------
2024-07-20 10:42 am SE 6.0 8.9----30.21-------
2024-07-20 10:36 amSSE 5.1 7.0----30.21-------
2024-07-20 10:30 amSSE 2.9 5.1----30.21- 58.6 48.4----
2024-07-20 10:24 am- 0.0 5.1----30.20- 62.6 49.5----
2024-07-20 10:18 am W 5.1 6.0----30.20- 63.0 49.3----
2024-07-20 10:12 amWNW 2.9 5.1----30.20- 63.5 49.8----
2024-07-20 10:06 amWNW 1.9 5.1----30.20- 63.5 49.1----
2024-07-20 10:00 amWNW 1.9 6.0----30.20+0.00 62.4 49.5----
2024-07-20 09:54 amWNW 2.9 7.0----30.20- 61.9 49.3----
2024-07-20 09:48 amWNW 6.0 9.9----30.20- 61.3 49.1----
2024-07-20 09:42 amWNW 6.0 9.9----30.20- 61.2 49.1----
2024-07-20 09:36 amWNW 5.1 8.0----30.20- 61.0 49.3----
2024-07-20 09:30 am NW 2.9 5.1----30.20- 61.0 49.3----
2024-07-20 09:24 amWNW 1.9 4.1----30.20- 61.0 49.3----
2024-07-20 09:18 amWNW 1.9 4.1----30.20- 59.9 49.3----
2024-07-20 09:12 am- 0.0 2.9----30.20- 58.3 49.6----
2024-07-20 09:06 am SW 1.9 2.9----30.20- 57.9 49.1----
2024-07-20 09:00 amWSW 1.9 2.9----30.20+0.00 58.3 48.9----
2024-07-20 08:54 am- 0.0 1.9----30.20- 59.0 49.1----
2024-07-20 08:48 amENE 1.0 1.9----30.20-- 49.3----
2024-07-20 08:42 am- 0.0 1.9----30.20-- 49.3----
2024-07-20 08:36 am W 1.9 1.9----30.20-- 49.1----
2024-07-20 08:30 amWSW 1.9 2.9----30.20- 56.1 48.9----
2024-07-20 08:24 am W 1.9 1.9----30.20- 55.4 49.1----
2024-07-20 08:18 am- 0.0 1.0----30.21- 54.7 49.5----
2024-07-20 08:12 am- 0.0 0.0----30.21- 54.7 49.1----
2024-07-20 08:06 amWSW 1.0 1.9----30.21- 54.7 49.3----
2024-07-20 08:00 amWSW 1.0 1.9----30.21+0.02- 49.5----
2024-07-20 07:54 amSSE 1.0 2.9----30.21-- 50.0----
2024-07-20 07:48 am- 0.0 1.9----30.20-- 50.0----
2024-07-20 07:42 amSSE 1.9 2.9----30.20-- 50.4----
2024-07-20 07:36 amSSE 1.0 1.9----30.20-- 50.4----
2024-07-20 07:30 amSSE 1.9 2.9----30.20- 53.8 50.2----
2024-07-20 07:24 am- 0.0 4.1----30.20- 53.8 50.0----
2024-07-20 07:18 am SE 4.1 6.0----30.21- 53.6 50.0----
2024-07-20 07:12 amSSE 1.9 4.1----30.21- 52.3 50.0----
2024-07-20 07:06 am- 0.0 2.9----30.20- 52.5 49.8----
2024-07-20 07:00 amSSE 2.9 2.9----30.20+0.02 53.4 49.6----
2024-07-20 06:54 amENE 1.0 1.9----30.20- 54.1 49.6----
2024-07-20 06:48 amESE 1.0 6.0----30.20-- 49.6----
2024-07-20 06:42 amSSE 2.9 5.1----30.20-- 49.8----
2024-07-20 06:36 amSSE 1.9 5.1----30.20-- 50.0----
2024-07-20 06:30 amSSE 6.0 7.0----30.20- 52.0 50.0----
2024-07-20 06:24 am S 6.0 7.0----30.20- 51.8 50.2----
2024-07-20 06:18 am SE 4.1 5.1----30.20- 53.6 50.2----
2024-07-20 06:12 am SE 4.1 5.1----30.19- 52.9 50.2----
2024-07-20 06:06 amSSW 1.9 2.9----30.19- 52.5 50.2----
2024-07-20 06:00 amWSW 2.9 4.1----30.19+0.01- 50.2----
2024-07-20 05:54 amNNE 1.0 5.1----30.19-- 50.2----
2024-07-20 05:48 am SE 4.1 5.1----30.19- 52.5 50.2----
2024-07-20 05:42 am S 1.9 4.1----30.19- 52.5 50.2----
2024-07-20 05:36 am- 0.0 1.9----30.19- 55.0 50.4----
2024-07-20 05:30 am- 0.0 2.9----30.19- 54.5 50.4----
2024-07-20 05:24 amSSW 2.9 4.1----30.19- 54.7 50.5----
2024-07-20 05:18 am- 0.0 2.9----30.19- 55.8 50.5----
2024-07-20 05:12 am NE 2.9 2.9----30.19- 55.4 50.7----
2024-07-20 05:06 am E 1.0 2.9----30.19- 54.3 50.7----
2024-07-20 05:00 am SW 1.9 2.9----30.19+0.00 54.5 50.7----
2024-07-20 04:54 am- 0.0 2.9----30.19- 55.0 50.7----
2024-07-20 04:48 am- 0.0 1.9----30.19- 55.9 50.7----
2024-07-20 04:42 amNNE 1.9 2.9----30.19- 55.4 50.7----
2024-07-20 04:36 am E 1.9 4.1----30.19- 53.6 50.5----
2024-07-20 04:30 am SW 1.9 2.9----30.19- 54.5 50.5----
2024-07-20 04:24 am- 0.0 5.1----30.19- 54.0 50.4----
2024-07-20 04:18 amSSE 1.9 5.1----30.19-- 50.4----
2024-07-20 04:12 am E 1.9 5.1----30.19-- 50.4----
2024-07-20 04:06 amSSE 5.1 6.0----30.19-- 50.2----
2024-07-20 04:00 amSSE 6.0 8.0----30.18+0.00 55.6 50.2----
2024-07-20 03:54 am SE 4.1 4.1----30.18- 55.8 50.0----
2024-07-20 03:48 am SE 2.9 4.1----30.18-------
2024-07-20 03:42 am E 2.9 4.1----30.19-------
2024-07-20 03:36 amSSE 1.9 2.9----30.18-------
2024-07-20 03:30 am SE 1.9 1.9----30.18- 56.8 49.8----
2024-07-20 03:24 amESE 1.9 2.9----30.18- 57.2 49.6----
2024-07-20 03:18 am E 1.0 1.9----30.18- 57.4 49.5----
2024-07-20 03:12 am NE 1.0 1.9----30.18- 57.4 49.3----
2024-07-20 03:06 am E 1.0 1.9----30.19- 56.7 49.3----
2024-07-20 03:00 am-------30.19+0.01 56.5 49.3----
2024-07-20 02:54 am-------30.19- 56.3 49.1----
2024-07-20 02:48 am- 0.0 1.9----30.19-- 49.1----
2024-07-20 02:42 am- 0.0 1.0----30.19-- 48.7----
2024-07-20 02:36 am SW 1.0 2.9----30.19-- 48.2----
2024-07-20 02:30 am-------30.19- 56.5 48.0----
2024-07-20 02:24 am-------30.19- 55.2 47.8----
2024-07-20 02:18 am- 0.0 0.0----30.19- 55.0 47.5----
2024-07-20 02:12 am- 0.0 1.9----30.19- 54.7 47.5----
2024-07-20 02:06 am- 0.0 1.9----30.19- 55.2 47.5----
2024-07-20 02:00 amSSE 1.9 2.9----30.19+0.04 55.6 47.5----
2024-07-20 01:54 amESE 1.9 4.1----30.19- 55.9 47.5----